This demonstration page uses our WeatherBlox Daily Observations layout. Learn more.

Left ArrowRight Arrow

40.97296, -117.73568

Hourly Observations for May 14, 2022

Temp ( °F °C ) Dew Point ( °F °C ) Humidity (%) Winds ( mph kmh ) Pressure ( in mb ) Visibility ( mi km ) Precip ( " mm )
12:56 am 00:56 Clear 57 13.9 36 2.2 45 45 W 10 17 30.06 1018 10 16 0.00 0.00
1:56 am 01:56 Clear 53 11.7 36 2.2 52 52 WSW 7 11 30.07 1018 10 16 0.00 0.00
2:56 am 02:56 Clear 50 10 37 2.8 61 61 SW 5 7 30.07 1018 10 16 0.00 0.00
3:56 am 03:56 Clear 51 10.6 37 2.8 59 59 Calm 30.07 1018 10 16 0.00 0.00
4:56 am 04:56 Clear 46 7.8 36 2.2 68 68 S 7 11 30.08 1019 10 16 0.00 0.00
5:56 am 05:56 Sunny 44 6.7 35 1.7 71 71 SSE 5 7 30.09 1019 10 16 0.00 0.00
6:56 am 06:56 Sunny 55 12.8 40 4.4 57 57 SSE 3 6 30.09 1019 10 16 0.00 0.00
7:56 am 07:56 Sunny 59 15 39 3.9 48 48 W 6 9 30.11 1020 10 16 0.00 0.00
8:56 am 08:56 Sunny 63 17.2 39 3.9 41 41 SSE 8 13 30.10 1019 10 16 0.00 0.00
9:56 am 09:56 Sunny 67 19.4 38 3.3 35 35 WSW 12 19 30.11 1020 10 16 0.00 0.00
10:56 am 10:56 Sunny 70 21.1 37 2.8 30 30 SSW 9 15 30.09 1019 10 16 0.00 0.00
11:56 am 11:56 Sunny 74 23.3 37 2.8 26 26 WSW 14 22 30.07 1018 10 16 0.00 0.00
12:56 pm 12:56 Sunny 74 23.3 35 1.7 24 24 S 8 13 30.04 1017 10 16 0.00 0.00
1:56 pm 13:56 Sunny 77 25 34 1.1 21 21 SW 8 13 30.03 1017 10 16 0.00 0.00
2:56 pm 14:56 Sunny 80 26.7 32 0 17 17 WSW 14 22 30.01 1016 10 16 0.00 0.00
3:56 pm 15:56 Mostly Sunny 79 26.1 33 0.6 19 19 SW 16 26 30.00 1016 10 16 0.00 0.00
4:56 pm 16:56 Sunny 79 26.1 32 0 18 18 WNW 13 20 30.01 1016 10 16 0.00 0.00
5:56 pm 17:56 Sunny 76 24.4 32 0 20 20 NW 10 17 30.02 1017 10 16 0.00 0.00
6:56 pm 18:56 Sunny 73 22.8 33 0.6 23 23 NNE 5 7 30.01 1016 10 16 0.00 0.00
7:56 pm 19:56 Sunny 68 20 34 1.1 28 28 ENE 5 7 30.01 1016 10 16 0.00 0.00
8:56 pm 20:56 Clear 58 14.4 35 1.7 42 42 undefined N/A 30.04 1017 10 16 0.00 0.00
9:56 pm 21:56 Clear 54 12.2 35 1.7 49 49 E 7 11 30.05 1018 10 16 0.00 0.00
10:56 pm 22:56 Clear 51 10.6 34 1.1 52 52 ESE 7 11 30.05 1018 10 16 0.00 0.00
11:56 pm 23:56 Clear 53 11.7 33 0.6 47 47 undefined N/A 30.05 1018 10 16 0.00 0.00

Powered by AerisWeather